Date String (YYYY-MM-DD hh:mm:ss) UTC,Instrument flags,Ambient pressure (hPa),Sample flow (lpm),Bypass flow (lpm),Sample temperature (°C),Ambient temperature (°C),ASC tube jacket temperature (°C),LED temperature (°C),Box temperature (°C),Sample RH (%),Span deviation,Mass concentration (μg/m³),Mass concentration (μg/m³),Mass concentration (μg/m³)
DateTimeUTC,F1_M11,P_M11,Q1_M11,Q2_M11,T1_M11,T2_M11,T3_M11,T4_M11,T5_M11,U1_M11,ZSPAN_M11,X2_M11,X0_M11,X1_M11
2023-02-02 16:00:00,,0831.9,4.97,0.00,22.9,21.6,00.0,31.7,24.6,10.2,0000.0,0001.24,0002.24,0000.86
2023-02-02 16:01:00,,0832.0,5.01,0.00,22.9,21.6,00.0,31.7,24.6,10.2,0000.0,0001.33,0002.51,0000.91
2023-02-02 16:02:00,,0832.0,5.01,0.00,22.9,21.6,00.0,31.7,24.6,10.1,0000.0,0001.33,0002.46,0000.94
2023-02-02 16:03:00,,0831.9,4.98,0.00,22.8,21.6,00.0,31.7,24.6,09.9,0000.0,0001.39,0002.57,0000.97
2023-02-02 16:04:00,,0832.0,5.02,0.00,22.8,21.6,00.0,31.7,24.7,10.1,0000.0,0001.40,0002.62,0000.99
2023-02-02 16:05:00,,0832.0,5.05,0.00,22.9,21.6,00.0,31.7,24.7,10.1,0000.0,0001.43,0002.66,0001.02
2023-02-02 16:06:00,,0832.1,5.01,0.00,22.9,21.7,00.0,31.7,24.7,10.3,0000.0,0001.50,0002.77,0001.06
2023-02-02 16:07:00,,0832.1,5.02,0.00,22.9,21.7,00.0,31.7,24.7,10.5,0000.0,0001.58,0003.02,0001.11
2023-02-02 16:08:00,,0832.1,4.98,0.00,22.9,21.7,00.0,31.7,24.7,10.4,0000.0,0001.63,0003.02,0001.17
2023-02-02 16:09:00,,0832.1,4.96,0.00,22.9,21.6,00.0,31.7,24.7,10.4,0000.0,0001.66,0003.09,0001.21
2023-02-02 16:10:00,,0832.0,5.00,0.00,22.9,21.6,00.0,31.7,24.7,10.1,0000.0,0001.71,0003.15,0001.24
2023-02-02 16:11:00,,0832.0,5.01,0.00,22.9,21.5,00.0,31.7,24.7,09.9,0000.0,0001.69,0003.13,0001.23
2023-02-02 16:12:00,,0831.9,5.02,0.00,22.9,21.5,00.0,31.7,24.7,10.1,0000.0,0001.71,0003.04,0001.25
2023-02-02 16:13:00,,0831.9,5.00,0.00,22.9,21.6,00.0,31.7,24.7,09.8,0000.0,0001.71,0003.03,0001.25
2023-02-02 16:14:00,,0832.0,4.99,0.00,22.9,21.6,00.0,31.7,24.6,09.8,0000.0,0001.70,0003.03,0001.25
2023-02-02 16:15:00,,0832.0,4.98,0.00,22.9,21.6,00.0,31.7,24.6,10.1,0000.0,0001.74,0003.04,0001.27
2023-02-02 16:16:00,,0832.0,5.04,0.00,22.8,21.6,00.0,31.7,24.6,09.9,0000.0,0001.79,0003.13,0001.27
2023-02-02 16:17:00,,0832.1,5.03,0.00,22.8,21.6,00.0,31.7,24.6,10.1,0000.0,0001.77,0003.10,0001.27
2023-02-02 16:18:00,,0832.1,4.99,0.00,22.8,21.6,00.0,31.7,24.6,10.0,0000.0,0001.71,0002.82,0001.26
2023-02-02 16:19:00,,0832.1,5.04,0.00,22.8,21.6,00.0,31.7,24.6,10.2,0000.0,0001.71,0002.79,0001.25
2023-02-02 16:20:00,,0832.1,4.98,0.00,22.9,21.6,00.0,31.7,24.6,10.1,0000.0,0001.65,0002.60,0001.23
2023-02-02 16:21:00,,0832.1,5.00,0.00,22.9,21.7,00.0,31.7,24.6,10.2,0000.0,0001.62,0002.62,0001.21
2023-02-02 16:22:00,,0832.0,5.00,0.00,22.9,21.7,00.0,31.7,24.6,10.2,0000.0,0001.64,0002.70,0001.20
2023-02-02 16:23:00,,0832.1,4.97,0.00,22.9,21.7,00.0,31.7,24.7,10.0,0000.0,0001.64,0002.81,0001.18
2023-02-02 16:24:00,,0832.1,5.01,0.00,22.9,21.7,00.0,31.7,24.7,09.8,0000.0,0001.64,0002.88,0001.17
2023-02-02 16:25:00,,0832.1,5.02,0.00,22.9,21.8,00.0,31.7,24.7,10.0,0000.0,0001.66,0002.94,0001.18
2023-02-02 16:26:00,,0832.1,5.03,0.00,23.0,21.8,00.0,31.7,24.7,09.7,0000.0,0001.68,0003.00,0001.17
2023-02-02 16:27:00,,0832.1,5.12,0.00,23.0,21.8,00.0,31.7,24.8,09.9,0000.0,0001.64,0002.90,0001.17
2023-02-02 16:28:00,,0832.1,5.09,0.00,23.0,21.8,00.0,31.7,24.8,10.1,0000.0,0001.64,0002.93,0001.17
2023-02-02 16:29:00,,0832.2,4.99,0.00,23.0,21.9,00.0,31.8,24.8,09.7,0000.0,0001.67,0003.27,0001.18
2023-02-02 16:30:00,,0832.2,5.04,0.00,23.0,21.9,00.0,31.8,24.8,09.7,0000.0,0001.65,0003.18,0001.17
2023-02-02 16:31:00,,0832.1,5.03,0.00,23.0,21.9,00.0,31.8,24.9,09.9,0000.0,0001.63,0003.17,0001.17
2023-02-02 16:32:00,,0832.1,5.06,0.00,23.0,21.9,00.0,31.8,24.9,10.1,0000.0,0001.68,0003.29,0001.20
2023-02-02 16:33:00,,0832.1,5.01,0.00,23.1,21.9,00.0,31.8,24.9,10.2,0000.0,0001.72,0003.55,0001.22
2023-02-02 16:34:00,,0832.1,4.96,0.00,23.1,21.9,00.0,31.8,24.9,10.1,0000.0,0001.70,0003.39,0001.23
2023-02-02 16:35:00,,0832.2,4.99,0.00,23.1,21.9,00.0,31.8,24.9,09.9,0000.0,0001.69,0003.31,0001.25
2023-02-02 16:36:00,,0832.2,4.99,0.00,23.1,21.9,00.0,31.8,24.9,09.9,0000.0,0001.72,0003.28,0001.29
2023-02-02 16:37:00,,0832.3,4.99,0.00,23.1,21.9,00.0,31.8,24.9,09.9,0000.0,0001.74,0003.35,0001.34
2023-02-02 16:38:00,,0832.3,5.06,0.00,23.1,21.9,00.0,31.8,24.8,10.1,0000.0,0001.73,0003.42,0001.37
2023-02-02 16:39:00,,0832.3,5.02,0.00,23.1,22.0,00.0,31.8,24.9,10.2,0000.0,0001.76,0003.53,0001.39
2023-02-02 16:40:00,,0832.3,4.99,0.00,23.1,22.0,00.0,31.9,24.9,10.2,0000.0,0001.79,0003.34,0001.42
2023-02-02 16:41:00,,0832.4,4.97,0.00,23.1,22.0,00.0,31.9,24.9,10.6,0000.0,0001.86,0003.46,0001.47
2023-02-02 16:42:00,,0832.4,4.99,0.00,23.1,22.0,00.0,31.9,25.0,10.6,0000.0,0001.94,0003.55,0001.54
2023-02-02 16:43:00,,0832.3,4.99,0.00,23.1,22.0,00.0,31.9,25.0,10.5,0000.0,0002.00,0003.58,0001.59
2023-02-02 16:44:00,,0832.4,4.97,0.00,23.1,22.0,00.0,31.9,24.9,10.1,0000.0,0002.03,0003.46,0001.62
2023-02-02 16:45:00,,0832.4,4.98,0.00,23.1,22.0,00.0,31.9,25.0,09.9,0000.0,0002.01,0003.39,0001.63
2023-02-02 16:46:00,,0832.3,5.01,0.00,23.1,22.0,00.0,31.9,25.0,10.3,0000.0,0002.01,0003.32,0001.66
2023-02-02 16:47:00,,0832.4,4.97,0.00,23.1,22.0,00.0,31.9,24.9,10.3,0000.0,0002.05,0003.35,0001.70
2023-02-02 16:48:00,,0832.3,5.01,0.00,23.2,22.0,00.0,31.9,24.9,10.2,0000.0,0002.04,0003.23,0001.69
2023-02-02 16:49:00,,0832.3,5.00,0.00,23.2,22.0,00.0,31.9,24.9,10.2,0000.0,0002.05,0003.03,0001.69
2023-02-02 16:50:00,,0832.3,4.98,0.00,23.2,22.0,00.0,31.9,24.9,10.4,0000.0,0002.11,0003.03,0001.76
2023-02-02 16:51:00,,0832.3,5.06,0.00,23.2,22.0,00.0,31.9,24.9,09.9,0000.0,0002.18,0003.00,0001.85
2023-02-02 16:52:00,,0832.3,4.96,0.00,23.2,22.0,00.0,31.9,24.9,09.3,0000.0,0002.22,0003.07,0001.90
2023-02-02 16:53:00,,0832.3,5.05,0.00,23.2,22.0,00.0,32.0,25.0,09.2,0000.0,0002.26,0003.16,0001.94
2023-02-02 16:54:00,,0832.4,5.02,0.00,23.2,22.1,00.0,32.0,24.9,09.0,0000.0,0002.33,0003.23,0002.01
2023-02-02 16:55:00,,0832.4,5.04,0.00,23.2,22.1,00.0,32.0,25.0,08.9,0000.0,0002.41,0003.33,0002.10
2023-02-02 16:56:00,,0832.4,5.04,0.00,23.2,22.1,00.0,32.0,25.0,09.0,0000.0,0002.52,0003.48,0002.19
2023-02-02 16:57:00,,0832.4,5.03,0.00,23.3,22.1,00.0,32.0,25.0,09.4,0000.0,0002.66,0003.94,0002.28
2023-02-02 16:58:00,,0832.4,5.04,0.00,23.3,22.1,00.0,32.0,25.0,09.2,0000.0,0002.80,0005.13,0002.34
2023-02-02 16:59:00,,0832.4,4.98,0.00,23.3,22.2,00.0,32.0,25.0,09.0,0000.0,0002.88,0005.30,0002.42
